| time (UTC) | temp F | wind direction | speed knots | gust knots | rain 1hr in | rain 24hr in | rain mn in | humidity % | barometer mb |
| 20260906100052 | 74 | 66 | 1.7 | 7.8 | 0.00 | 0.00 | 0.00 | 56 | 1006.7 |
| 20260906094547 | 74 | 73 | 1.7 | 4.3 | 0.00 | 0.01 | 0.00 | 56 | 1006.7 |
| 20260906093042 | 74 | 74 | 2.6 | 5.2 | 0.00 | 0.01 | 0.00 | 56 | 1006.5 |
| 20260906091544 | 75 | 75 | 1.7 | 5.2 | 0.00 | 0.01 | 0.00 | 56 | 1006.4 |
| 20260906090040 | 75 | 76 | 3.5 | 5.2 | 0.00 | 0.01 | 0.00 | 56 | 1006.4 |
| 20260906084539 | 75 | 77 | 2.6 | 6.1 | 0.00 | 0.02 | 0.00 | 55 | 1006.3 |
| 20260906083038 | 75 | 78 | 3.5 | 5.2 | 0.00 | 0.02 | 0.00 | 56 | 1006.4 |
| 20260906081536 | 76 | 78 | 1.7 | 5.2 | 0.00 | 0.02 | 0.00 | 56 | 1006.3 |
| 20260906080037 | 76 | 79 | 2.6 | 4.3 | 0.00 | 0.02 | 0.00 | 56 | 1006.3 |
| 20260906074535 | 76 | 80 | 0.9 | 2.6 | 0.00 | 0.02 | 0.00 | 56 | 1006.4 |
| 20260906073033 | 76 | 80 | 0.9 | 4.3 | 0.00 | 0.02 | 0.00 | 56 | 1006.3 |
| 20260906071531 | 77 | 80 | 0.9 | 3.5 | 0.00 | 0.02 | 0.00 | 55 | 1006.3 |
| 20260906070030 | 77 | 80 | 1.7 | 3.5 | 0.00 | 0.02 | 0.00 | 55 | 1006.5 |
| 20260906064529 | 77 | 80 | 0.0 | 3.5 | 0.00 | 0.02 | 0.00 | 55 | 1006.5 |
| 20260906063028 | 78 | 80 | 0.9 | 4.3 | 0.00 | 0.02 | 0.00 | 55 | 1006.4 |
| 20260906061526 | 78 | 80 | 1.7 | 5.2 | 0.00 | 0.02 | 0.00 | 55 | 1006.6 |
| 20260906060027 | 79 | 81 | 0.9 | 3.5 | 0.00 | 0.02 | 0.00 | 55 | 1006.7 |
| 20260906054536 | 79 | 81 | 1.7 | 6.1 | 0.00 | 0.02 | 0.00 | 54 | 1006.6 |
| 20260906053020 | 80 | 81 | 0.9 | 3.5 | 0.00 | 0.02 | 0.00 | 54 | 1006.5 |
| 20260906051517 | 80 | 81 | 2.6 | 4.3 | 0.00 | 0.02 | 0.00 | 54 | 1006.4 |
| 20260906050015 | 80 | 81 | 1.7 | 3.5 | 0.00 | 0.02 | 0.00 | 54 | 1006.4 |
| 20260906044513 | 81 | 81 | 1.7 | 4.3 | 0.00 | 0.02 | 0.00 | 53 | 1006.3 |
| 20260906043016 | 81 | 81 | 0.0 | 3.5 | 0.00 | 0.02 | 0.00 | 53 | 1006.2 |
| 20260906041509 | 82 | 81 | 0.0 | 4.3 | 0.00 | 0.02 | 0.00 | 52 | 1006.2 |
| 20260906040022 | 82 | 96 | 2.6 | 5.2 | 0.00 | 0.02 | 0.00 | 51 | 1006.3 |
| 20260906034513 | 82 | 98 | 0.9 | 10.4 | 0.00 | 0.02 | 0.02 | 51 | 1006.2 |
| 20260906033021 | 82 | 154 | 0.0 | 4.3 | 0.00 | 0.02 | 0.02 | 50 | 1005.8 |
| 20260906031509 | 83 | 154 | 0.0 | 0.0 | 0.00 | 0.02 | 0.02 | 49 | 1005.8 |
| 20260906030005 | 83 | 154 | 0.0 | 0.0 | 0.00 | 0.02 | 0.02 | 49 | 1005.9 |
| 20260906024504 | 83 | 154 | 0.0 | 1.7 | 0.00 | 0.02 | 0.02 | 49 | 1006.0 |
| 20260906023004 | 83 | 154 | 0.0 | 1.7 | 0.00 | 0.02 | 0.02 | 48 | 1005.9 |
| 20260906021504 | 84 | 154 | 0.0 | 2.6 | 0.00 | 0.02 | 0.02 | 47 | 1005.8 |
| 20260906020002 | 84 | 154 | 2.6 | 5.2 | 0.00 | 0.02 | 0.02 | 47 | 1005.4 |
| 20260906014502 | 84 | 154 | 0.0 | 1.7 | 0.00 | 0.02 | 0.02 | 46 | 1005.4 |
| 20260906013002 | 84 | 154 | 0.0 | 5.2 | 0.00 | 0.02 | 0.02 | 46 | 1004.9 |
| 20260906011601 | 85 | 154 | 0.9 | 4.3 | 0.00 | 0.02 | 0.02 | 45 | 1004.8 |
| 20260906010100 | 85 | 154 | 1.7 | 5.2 | 0.00 | 0.02 | 0.02 | 44 | 1004.8 |
| 20260906004600 | 85 | 154 | 3.5 | 7.0 | 0.00 | 0.02 | 0.02 | 42 | 1004.8 |
| 20260906003059 | 86 | 159 | 3.5 | 6.1 | 0.00 | 0.02 | 0.02 | 42 | 1004.8 |
| 20260906001607 | 87 | 137 | 3.5 | 6.1 | 0.00 | 0.02 | 0.02 | 41 | 1005.1 |
| 20260906000058 | 88 | 139 | 1.7 | 4.3 | 0.00 | 0.02 | 0.02 | 41 | 1005.2 |
| 20260905234557 | 89 | 143 | 4.3 | 8.7 | 0.00 | 0.02 | 0.02 | 39 | 1005.4 |
| 20260905233102 | 92 | 348 | 2.6 | 4.3 | 0.00 | 0.02 | 0.02 | 39 | 1005.5 |
| 20260905231556 | 93 | 346 | 2.6 | 7.8 | 0.00 | 0.02 | 0.02 | 38 | 1005.4 |
| 20260905224615 | 94 | 306 | 3.5 | 7.8 | 0.00 | 0.02 | 0.02 | 35 | 1004.9 |
| 20260905223105 | 95 | 309 | 2.6 | 7.0 | 0.00 | 0.02 | 0.02 | 35 | 1004.6 |
| 20260905221552 | 95 | 289 | 1.7 | 7.0 | 0.00 | 0.02 | 0.02 | 35 | 1004.7 |
| 20260905220051 | 94 | 286 | 2.6 | 6.1 | 0.00 | 0.02 | 0.02 | 35 | 1004.7 |
| 20260905214551 | 96 | 275 | 2.6 | 6.1 | 0.00 | 0.02 | 0.02 | 34 | 1004.9 |
| 20260905213052 | 95 | 273 | 0.0 | 6.1 | 0.00 | 0.02 | 0.02 | 34 | 1004.9 |
| 20260905211550 | 96 | 236 | 3.5 | 7.8 | 0.00 | 0.02 | 0.02 | 33 | 1005.0 |
| 20260905210053 | 96 | 320 | 0.9 | 7.8 | 0.00 | 0.02 | 0.02 | 33 | 1005.0 |
| 20260905204545 | 97 | 266 | 3.5 | 9.6 | 0.00 | 0.02 | 0.02 | 31 | 1005.3 |
| 20260905203040 | 98 | 257 | 4.3 | 8.7 | 0.00 | 0.02 | 0.02 | 31 | 1005.5 |
| 20260905201537 | 97 | 325 | 1.7 | 8.7 | 0.00 | 0.02 | 0.02 | 31 | 1005.7 |
| 20260905200035 | 97 | 23 | 3.5 | 8.7 | 0.00 | 0.02 | 0.02 | 31 | 1005.9 |
| 20260905194533 | 97 | 294 | 2.6 | 7.0 | 0.00 | 0.02 | 0.02 | 31 | 1006.0 |
| 20260905193031 | 96 | 320 | 3.5 | 8.7 | 0.00 | 0.02 | 0.02 | 31 | 1006.3 |
| 20260905191528 | 96 | 217 | 2.6 | 7.8 | 0.00 | 0.02 | 0.02 | 30 | 1006.4 |
| 20260905190027 | 96 | 202 | 2.6 | 6.1 | 0.00 | 0.02 | 0.02 | 32 | 1006.6 |
| 20260905184530 | 95 | 196 | 0.9 | 6.1 | 0.00 | 0.02 | 0.02 | 32 | 1006.8 |
| 20260905183025 | 94 | 178 | 1.7 | 5.2 | 0.00 | 0.02 | 0.02 | 33 | 1007.1 |
| 20260905181523 | 94 | 223 | 0.0 | 3.5 | 0.00 | 0.02 | 0.02 | 32 | 1007.2 |
| 20260905180020 | 93 | 204 | 0.0 | 4.3 | 0.00 | 0.02 | 0.02 | 34 | 1007.3 |
| 20260905174524 | 92 | 204 | 2.6 | 7.0 | 0.00 | 0.02 | 0.02 | 34 | 1007.5 |
| 20260905173017 | 91 | 165 | 2.6 | 7.0 | 0.00 | 0.02 | 0.02 | 36 | 1007.5 |
| 20260905171515 | 91 | 162 | 1.7 | 5.2 | 0.00 | 0.02 | 0.02 | 37 | 1007.6 |
| 20260905170012 | 90 | 167 | 2.6 | 7.0 | 0.00 | 0.02 | 0.02 | 37 | 1008.0 |
| 20260905164514 | 89 | 166 | 3.5 | 8.7 | 0.00 | 0.02 | 0.02 | 38 | 1008.4 |
| 20260905163006 | 89 | 159 | 2.6 | 7.0 | 0.00 | 0.02 | 0.02 | 38 | 1008.5 |
| 20260905161505 | 88 | 170 | 4.3 | 7.8 | 0.00 | 0.02 | 0.02 | 39 | 1008.5 |
| 20260905160058 | 87 | 166 | 2.6 | 7.8 | 0.00 | 0.02 | 0.02 | 42 | 1008.5 |
| 20260905154607 | 86 | 157 | 5.2 | 8.7 | 0.00 | 0.02 | 0.02 | 42 | 1008.6 |
| 20260905153052 | 86 | 141 | 3.5 | 9.6 | 0.00 | 0.02 | 0.02 | 42 | 1008.6 |
| 20260905151547 | 84 | 144 | 4.3 | 10.4 | 0.00 | 0.02 | 0.02 | 46 | 1008.5 |
| 20260905150043 | 83 | 144 | 5.2 | 9.6 | 0.00 | 0.02 | 0.02 | 46 | 1008.8 |
| 20260905144540 | 82 | 147 | 2.6 | 11.3 | 0.00 | 0.02 | 0.02 | 47 | 1008.9 |
| 20260905143037 | 83 | 134 | 0.9 | 7.0 | 0.00 | 0.02 | 0.02 | 47 | 1009.0 |
| 20260905141533 | 81 | 90 | 1.7 | 10.4 | 0.00 | 0.02 | 0.02 | 49 | 1009.2 |
| 20260905140030 | 79 | 118 | 1.7 | 7.0 | 0.00 | 0.02 | 0.02 | 50 | 1009.3 |
| 20260905134528 | 79 | 139 | 2.6 | 9.6 | 0.00 | 0.02 | 0.02 | 50 | 1009.5 |
| 20260905133035 | 78 | 57 | 2.6 | 8.7 | 0.00 | 0.02 | 0.02 | 51 | 1009.7 |
| 20260905131527 | 76 | 28 | 6.1 | 13.0 | 0.00 | 0.02 | 0.02 | 54 | 1009.7 |
| 20260905130020 | 75 | 51 | 7.0 | 13.0 | 0.00 | 0.02 | 0.02 | 55 | 1009.4 |
| 20260905124518 | 76 | 52 | 4.3 | 11.3 | 0.00 | 0.02 | 0.02 | 56 | 1009.8 |
| 20260905123016 | 76 | 39 | 5.2 | 13.0 | 0.00 | 0.02 | 0.02 | 56 | 1009.4 |
| 20260905121512 | 75 | 127 | 1.7 | 6.1 | 0.00 | 0.02 | 0.02 | 56 | 1008.7 |
| 20260905120007 | 76 | 98 | 3.5 | 7.8 | 0.00 | 0.02 | 0.02 | 56 | 1008.5 |
| 20260905114505 | 76 | 49 | 1.7 | 7.8 | 0.00 | 0.02 | 0.02 | 55 | 1008.4 |
| 20260905113002 | 77 | 49 | 3.5 | 7.8 | 0.00 | 0.02 | 0.02 | 55 | 1008.1 |
| 20260905111601 | 77 | 47 | 2.6 | 11.3 | 0.00 | 0.02 | 0.02 | 55 | 1008.0 |
| 20260905110100 | 78 | 59 | 3.5 | 7.8 | 0.00 | 0.02 | 0.02 | 55 | 1008.0 |
| 20260905104557 | 78 | 22 | 3.5 | 10.4 | 0.00 | 0.02 | 0.02 | 55 | 1007.8 |
| 20260905103058 | 80 | 350 | 0.0 | 2.6 | 0.00 | 0.02 | 0.02 | 55 | 1007.0 |
| 20260905101600 | 80 | 350 | 0.0 | 2.6 | 0.00 | 0.02 | 0.02 | 54 | 1006.8 |